This demonstration page uses our WeatherBlox Daily Observations layout. Learn more.

38.89511, -77.03637

Hourly Observations for April 27, 2017

Temp ( °F °C ) Dew Point ( °F °C ) Humidity (%) Winds ( mph kmh ) Pressure ( in mb ) Visibility ( mi km ) Precip ( " mm )
12:52 am 00:52 Clear 61 16.1 58 14.4 90 90 Calm 29.83 1010 10 16.09344 0 0
1:52 am 01:52 Mostly Clear 61 16.1 58 14.4 90 90 Calm 29.83 1010 10 16.09344 0 0
2:52 am 02:52 Partly Cloudy 60 15.6 58 14.4 93 93 Calm 29.8 1009 10 16.09344 0 0
3:52 am 03:52 Mostly Clear 60 15.6 58 14.4 93 93 Calm 29.8 1009 9 14.484096 0 0
4:52 am 04:52 Mostly Clear 59 15 58 14.4 96 96 ENE 5 7 29.8 1009 10 16.09344 0 0
5:19 am 05:19 Mostly Clear 59 15 58 14.4 96 96 E 5 7 29.83 1010 10 16.09344 0 0
5:52 am 05:52 Clear 59 15 58 14.4 96 96 ENE 5 7 29.83 1010 10 16.09344 0 0
6:52 am 06:52 Mostly Sunny 59 15 58 14.4 96 96 ENE 6 9 29.83 1010 7 11.265408 0 0
6:58 am 06:58 Mostly Sunny 59 15 57 14 94 94 ENE 6 9 29.83 1010 7 11.265408 0 0
7:52 am 07:52 Partly Cloudy 61 16.1 59 15 93 93 NE 3 6 29.83 1010 8 12.874752 0 0
8:52 am 08:52 Partly Cloudy 65 18.3 61 16.1 87 87 ESE 3 6 29.83 1010 10 16.09344 0 0
9:06 am 09:06 Mostly Cloudy 66 18.9 61 16.1 84 84 Calm 29.85 1011 10 16.09344 0 0
9:27 am 09:27 Partly Cloudy 67 19.4 62 16.7 84 84 SSE 3 6 29.85 1011 10 16.09344 0 0
9:52 am 09:52 Partly Cloudy 68 20 63 17.2 84 84 S 6 9 29.85 1011 10 16.09344 0 0
10:52 am 10:52 Mostly Cloudy 72 22.2 64 17.8 76 76 SSE 7 11 29.85 1011 10 16.09344 0 0
11:52 am 11:52 Cloudy 75 23.9 66 18.9 74 74 S 7 11 29.85 1011 10 16.09344 0 0
12:52 pm 12:52 Cloudy 78 25.6 66 18.9 67 67 S 8 13 29.8 1009 10 16.09344 0 0
1:52 pm 13:52 Cloudy 81 27.2 66 18.9 61 61 S 10 17 29.8 1009 10 16.09344 0 0
2:52 pm 14:52 Cloudy 80 26.7 65 18.3 60 60 S 12 19 29.77 1008 10 16.09344 0 0
3:52 pm 15:52 Cloudy 81 27.2 65 18.3 58 58 S 10 17 29.74 1007 10 16.09344 0 0
4:52 pm 16:52 Mostly Cloudy 79 26.1 64 17.8 60 60 S 15 24 29.74 1007 10 16.09344 0 0
5:52 pm 17:52 Mostly Cloudy 78 25.6 64 17.8 62 62 S 13 20 29.74 1007 10 16.09344 0 0
6:52 pm 18:52 Cloudy 77 25 63 17.2 62 62 S 10 17 29.74 1007 10 16.09344 0 0
7:52 pm 19:52 Cloudy 79 26.1 60 15.6 52 52 SSW 14 22 29.77 1008 10 16.09344 0 0
8:52 pm 20:52 Mostly Cloudy 77 25 59 15 54 54 SSW 12 19 29.77 1008 10 16.09344 0 0
9:52 pm 21:52 Mostly Cloudy 77 25 60 15.6 56 56 SSW 13 20 29.8 1009 10 16.09344 0 0
10:19 pm 22:19 Cloudy 74 23.3 61 16.1 64 64 S 10 17 29.8 1009 10 16.09344 0.001 0.001
10:52 pm 22:52 Cloudy 74 23.3 62 16.7 67 67 SSW 13 20 29.8 1009 10 16.09344 0.001 0.001
11:52 pm 23:52 Cloudy 73 22.8 62 16.7 69 69 SSW 12 19 29.83 1010 10 16.09344 0.001 0.001

Powered by AerisWeather